Location: Geroldsau
(48.7259°N, 8.2466°E)
Time: 16:32:45
(UTC+00:00)

Cosmos 1271 Rocket - Pass Details

Date: 20 June 2021
Orbit: 498 x 544 km, 81.2° (Epoch: 30 July)

Event Time Altitude Azimuth Distance (km) Brightness Sun altitude
Rises 02:12:01 0° 348° (NNW) 2,602 6.9 -9.1°
Reaches altitude 10° 02:14:08 10° 348° (NNW) 1,714 6.0 -8.9°
Maximum altitude 02:17:54 90° 84° (E) 507 2.6 -8.5°
Drops below altitude 10° 02:21:39 10° 170° (S) 1,709 5.0 -8.2°
Sets 02:23:46 0° 170° (S) 2,593 5.9 -7.9°
